Home > Time Zones > World Clock > Weather > Fiji > Nadi > Past weeks

Flag for Fiji Weather past 2 weeks in Nadi, Fiji

Now
79 °F

Passing clouds.


Feels Like: 81 °F
Forecast: 77 / 85 °F
Wind: 12 mph from East

Location: Nandi


UV Index: 5 (Moderate)

Visibility: N/A


Pressure: 29.86 "Hg

Humidity: 74%

Dew point: 70 °F

Location of NadiLocation

Historic Weather in Nadi

°F

Nadi temperature yesterday

Maximum temperature yesterday: 86 °F (at 12:00 PM)
Minimum temperature yesterday: 75 °F (at 12:00 AM)
Average temperature yesterday: 79 °F

Past Weeks' High & Low Weather Summary

 TemperatureHumidityPressure
High88 °F (Apr 12, 2:00 PM)100% (Apr 10, 1:00 AM)29.98 "Hg (Apr 10, 1:00 AM)
Low68 °F (Apr 22, 4:00 AM)48% (Apr 15, 5:00 PM)29.77 "Hg (Apr 10, 1:00 PM)
Average79 °F79%29.87 "Hg
* Reported Apr 9 6:00 PM — Apr 24 6:00 PM, Nadi, Weather by CustomWeather, © 2014

Note: Actual official high and low records may vary slightly from our data, if they occured in-between our weather recording intervals... More about our weather records

Advertising

Historic Weather Conditions — Data for Previous 24 hours

 ConditionsComfort  
Time TempWeatherWind HumidityBarometerVisibility
6:00 PM
Apr 24
81 °FPassing clouds.8 mph70%29.83 "HgN/A
5:00 PM82 °FScattered clouds.9 mph70%29.83 "HgN/A
4:00 PM84 °FScattered clouds.12 mph70%29.80 "HgN/A
3:00 PM84 °FScattered clouds.16 mph66%29.80 "HgN/A
2:00 PM86 °FBroken clouds.6 mph62%29.80 "HgN/A
1:00 PM86 °FScattered clouds.14 mph62%29.83 "HgN/A
12:00 PM88 °FPartly sunny.12 mph59%29.86 "HgN/A
11:00 AM86 °FBroken clouds.10 mph62%29.86 "HgN/A
10:00 AM82 °FScattered clouds.6 mph70%29.89 "HgN/A
9:00 AM81 °FBroken clouds.8 mph74%29.89 "HgN/A
8:00 AM79 °FBroken clouds.5 mph79%29.89 "HgN/A
7:00 AM75 °FBroken clouds.7 mph83%29.86 "HgN/A
6:00 AM75 °FPassing clouds.8 mph83%29.86 "HgN/A
5:00 AM73 °FPassing clouds.9 mph89%29.83 "HgN/A
4:00 AM75 °FPassing clouds.5 mph89%29.83 "HgN/A
3:00 AM75 °FPassing clouds.6 mph89%29.83 "HgN/A
2:00 AM77 °FPassing clouds.3 mph83%29.86 "HgN/A
1:00 AM77 °FLight rain. Passing clouds.7 mph83%29.89 "HgN/A
12:00 AM77 °FPartly cloudy.7 mph83%29.89 "HgN/A
11:00 PM
Apr 23
77 °FPartly cloudy.5 mph83%29.89 "HgN/A
10:00 PM77 °FPartly cloudy.3 mph83%29.92 "HgN/A
9:00 PM79 °FPartly cloudy.8 mph79%29.92 "HgN/A
8:00 PM79 °FPartly cloudy.8 mph79%29.89 "HgN/A
7:00 PM79 °FPartly cloudy.9 mph79%29.89 "HgN/A
Weather by CustomWeather, © 2014

See weather overview